Time,TemperatureF,DewpointF,PressureIn,WindDirection,WindDirectionDegrees,WindSpeedMPH,WindSpeedGustMPH,Humidity,HourlyPrecipIn,Conditions,Clouds,dailyrainin,SoftwareType,DateUTC
2013-01-21 00:03:00,8.0,-3.0,-100.00,NNW,327,7.0,11.0,60,0.00,,,0.00,,2013-01-21 06:03:00,
2013-01-21 00:12:00,8.0,-3.0,-100.00,NNW,327,7.0,11.0,60,0.00,,,0.00,,2013-01-21 06:12:00,
2013-01-21 00:23:00,8.0,-3.0,-100.00,NNW,327,7.0,11.0,60,0.00,,,0.00,,2013-01-21 06:23:00,
2013-01-21 00:53:00,8.0,-3.0,-100.00,NW,309,9.0,13.0,60,0.00,,,0.00,,2013-01-21 06:53:00,
2013-01-21 01:03:00,8.0,-3.0,-100.00,NW,309,9.0,13.0,60,0.00,,,0.00,,2013-01-21 07:03:00,
2013-01-21 01:13:00,8.0,-3.0,-100.00,NW,309,9.0,13.0,60,0.00,,,0.00,,2013-01-21 07:13:00,
2013-01-21 01:22:00,8.0,-3.0,-100.00,NW,309,9.0,13.0,60,0.00,,,0.00,,2013-01-21 07:22:00,
2013-01-21 01:53:00,7.0,-4.0,-100.00,NW,311,10.0,16.0,61,0.00,,,0.00,,2013-01-21 07:53:00,
2013-01-21 02:03:00,7.0,-4.0,-100.00,NW,311,10.0,16.0,61,0.00,,,0.00,,2013-01-21 08:03:00,
2013-01-21 02:13:00,7.0,-4.0,-100.00,NW,311,10.0,16.0,61,0.00,,,0.00,,2013-01-21 08:13:00,
2013-01-21 02:23:00,7.0,-4.0,-100.00,NW,311,10.0,16.0,61,0.00,,,0.00,,2013-01-21 08:23:00,
2013-01-21 02:53:00,6.0,-3.0,-100.00,NW,310,12.0,17.0,67,0.00,,,0.00,,2013-01-21 08:53:00,
2013-01-21 03:03:00,6.0,-3.0,-100.00,NW,310,12.0,17.0,67,0.00,,,0.00,,2013-01-21 09:03:00,
2013-01-21 03:12:00,6.0,-3.0,-100.00,NW,310,12.0,17.0,67,0.00,,,0.00,,2013-01-21 09:12:00,
2013-01-21 03:22:00,6.0,-3.0,-100.00,NW,310,12.0,17.0,67,0.00,,,0.00,,2013-01-21 09:22:00,
2013-01-21 03:53:00,5.0,-4.0,-100.00,NW,313,10.0,18.0,66,0.00,,,0.00,,2013-01-21 09:53:00,
2013-01-21 04:02:00,5.0,-4.0,-100.00,NW,313,10.0,18.0,66,0.00,,,0.00,,2013-01-21 10:02:00,
2013-01-21 04:12:00,5.0,-4.0,-100.00,NW,313,10.0,18.0,66,0.00,,,0.00,,2013-01-21 10:12:00,
2013-01-21 04:22:00,5.0,-4.0,-100.00,NW,313,10.0,18.0,66,0.00,,,0.00,,2013-01-21 10:22:00,
2013-01-21 04:53:00,4.0,-6.0,-100.00,NW,310,9.0,18.0,61,0.00,,,0.00,,2013-01-21 10:53:00,
2013-01-21 05:03:00,4.0,-6.0,-100.00,NW,310,9.0,18.0,61,0.00,,,0.00,,2013-01-21 11:03:00,
2013-01-21 05:13:00,4.0,-6.0,-100.00,NW,310,9.0,18.0,61,0.00,,,0.00,,2013-01-21 11:13:00,
2013-01-21 05:23:00,4.0,-6.0,-100.00,NW,310,9.0,18.0,61,0.00,,,0.00,,2013-01-21 11:23:00,
2013-01-21 05:53:00,3.0,-7.0,-100.00,NW,309,10.0,15.0,63,0.00,,,0.00,,2013-01-21 11:53:00,
2013-01-21 06:02:00,3.0,-7.0,-100.00,NW,309,10.0,15.0,63,0.00,,,0.00,,2013-01-21 12:02:00,
2013-01-21 06:12:00,3.0,-7.0,-100.00,NW,309,10.0,15.0,63,0.00,,,0.00,,2013-01-21 12:12:00,
2013-01-21 06:22:00,3.0,-7.0,-100.00,NW,309,10.0,15.0,63,0.00,,,0.00,,2013-01-21 12:22:00,
2013-01-21 06:53:00,2.0,-6.0,-100.00,NNW,328,12.0,19.0,69,0.00,,,0.00,,2013-01-21 12:53:00,
2013-01-21 07:03:00,2.0,-6.0,-100.00,NNW,328,12.0,19.0,69,0.00,,,0.00,,2013-01-21 13:03:00,
2013-01-21 07:13:00,2.0,-6.0,-100.00,NNW,328,12.0,19.0,69,0.00,,,0.00,,2013-01-21 13:13:00,
2013-01-21 07:23:00,2.0,-6.0,-100.00,NNW,328,12.0,19.0,69,0.00,,,0.00,,2013-01-21 13:23:00,
2013-01-21 07:54:00,0.0,-11.0,-100.00,NW,307,15.0,25.0,60,0.00,,,0.00,,2013-01-21 13:54:00,
2013-01-21 08:03:00,0.0,-11.0,-100.00,NW,307,15.0,25.0,60,0.00,,,0.00,,2013-01-21 14:03:00,
2013-01-21 08:12:00,0.0,-11.0,-100.00,NW,307,15.0,25.0,60,0.00,,,0.00,,2013-01-21 14:12:00,
2013-01-21 08:23:00,0.0,-11.0,-100.00,NW,307,15.0,25.0,60,0.00,,,0.00,,2013-01-21 14:23:00,
2013-01-21 08:53:00,0.0,-10.0,-100.00,WNW,300,18.0,29.0,61,0.00,,,0.00,,2013-01-21 14:53:00,
2013-01-21 09:03:00,0.0,-10.0,-100.00,WNW,300,18.0,29.0,61,0.00,,,0.00,,2013-01-21 15:03:00,
2013-01-21 09:13:00,0.0,-10.0,-100.00,WNW,300,18.0,29.0,61,0.00,,,0.00,,2013-01-21 15:13:00,
2013-01-21 09:23:00,0.0,-10.0,-100.00,WNW,300,18.0,29.0,61,0.00,,,0.00,,2013-01-21 15:23:00,
2013-01-21 09:53:00,-1.0,-10.0,-100.00,WNW,300,18.0,27.0,64,0.00,,,0.00,,2013-01-21 15:53:00,
2013-01-21 10:03:00,-1.0,-10.0,-100.00,WNW,300,18.0,27.0,64,0.00,,,0.00,,2013-01-21 16:03:00,
2013-01-21 10:12:00,-1.0,-10.0,-100.00,WNW,300,18.0,27.0,64,0.00,,,0.00,,2013-01-21 16:12:00,
2013-01-21 10:23:00,-1.0,-10.0,-100.00,WNW,300,18.0,27.0,64,0.00,,,0.00,,2013-01-21 16:23:00,
2013-01-21 10:53:00,-1.0,-15.0,-100.00,WNW,302,18.0,28.0,51,0.00,,,0.00,,2013-01-21 16:53:00,
2013-01-21 11:03:00,-1.0,-15.0,-100.00,WNW,302,18.0,28.0,51,0.00,,,0.00,,2013-01-21 17:03:00,
2013-01-21 11:12:00,-1.0,-15.0,-100.00,WNW,302,18.0,28.0,51,0.00,,,0.00,,2013-01-21 17:12:00,
2013-01-21 11:23:00,-1.0,-15.0,-100.00,WNW,302,18.0,28.0,51,0.00,,,0.00,,2013-01-21 17:23:00,
2013-01-21 11:53:00,-1.0,-14.0,-100.00,WNW,302,19.0,28.0,52,0.00,,,0.00,,2013-01-21 17:53:00,
2013-01-21 12:03:00,-1.0,-14.0,-100.00,WNW,302,19.0,28.0,52,0.00,,,0.00,,2013-01-21 18:03:00,
2013-01-21 12:12:00,-1.0,-14.0,-100.00,WNW,302,19.0,28.0,52,0.00,,,0.00,,2013-01-21 18:12:00,
2013-01-21 12:22:00,-1.0,-14.0,-100.00,WNW,302,19.0,28.0,52,0.00,,,0.00,,2013-01-21 18:22:00,
2013-01-21 12:53:00,1.0,-14.0,-100.00,WNW,299,18.0,28.0,48,0.00,,,0.00,,2013-01-21 18:53:00,
2013-01-21 13:03:00,1.0,-14.0,-100.00,WNW,299,18.0,28.0,48,0.00,,,0.00,,2013-01-21 19:03:00,
2013-01-21 13:12:00,1.0,-14.0,-100.00,WNW,299,18.0,28.0,48,0.00,,,0.00,,2013-01-21 19:12:00,
2013-01-21 13:22:00,1.0,-14.0,-100.00,WNW,299,18.0,28.0,48,0.00,,,0.00,,2013-01-21 19:22:00,
2013-01-21 13:53:00,2.0,-13.0,-100.00,NW,306,17.0,28.0,49,0.00,,,0.00,,2013-01-21 19:53:00,
2013-01-21 14:03:00,2.0,-13.0,-100.00,NW,306,17.0,28.0,49,0.00,,,0.00,,2013-01-21 20:03:00,
2013-01-21 14:12:00,2.0,-13.0,-100.00,NW,306,17.0,28.0,49,0.00,,,0.00,,2013-01-21 20:12:00,
2013-01-21 14:23:00,2.0,-13.0,-100.00,NW,306,17.0,28.0,49,0.00,,,0.00,,2013-01-21 20:23:00,
2013-01-21 14:53:00,2.0,-14.0,-100.00,NW,307,18.0,27.0,45,0.00,,,0.00,,2013-01-21 20:53:00,
2013-01-21 15:04:00,2.0,-14.0,-100.00,NW,307,18.0,27.0,45,0.00,,,0.00,,2013-01-21 21:04:00,
2013-01-21 15:12:00,2.0,-14.0,-100.00,NW,307,18.0,27.0,45,0.00,,,0.00,,2013-01-21 21:12:00,
2013-01-21 15:23:00,2.0,-14.0,-100.00,NW,307,18.0,27.0,45,0.00,,,0.00,,2013-01-21 21:23:00,
2013-01-21 15:54:00,1.0,-16.0,-100.00,WNW,300,19.0,29.0,44,0.00,,,0.00,,2013-01-21 21:54:00,
2013-01-21 16:03:00,1.0,-16.0,-100.00,WNW,300,19.0,29.0,44,0.00,,,0.00,,2013-01-21 22:03:00,
2013-01-21 16:12:00,1.0,-16.0,-100.00,WNW,300,19.0,29.0,44,0.00,,,0.00,,2013-01-21 22:12:00,
2013-01-21 16:23:00,1.0,-16.0,-100.00,WNW,300,19.0,29.0,44,0.00,,,0.00,,2013-01-21 22:23:00,
2013-01-21 16:53:00,-1.0,-16.0,-100.00,NW,304,16.0,27.0,49,0.00,,,0.00,,2013-01-21 22:53:00,
2013-01-21 17:03:00,-1.0,-16.0,-100.00,NW,304,16.0,27.0,49,0.00,,,0.00,,2013-01-21 23:03:00,
2013-01-21 17:12:00,-1.0,-16.0,-100.00,NW,304,16.0,27.0,49,0.00,,,0.00,,2013-01-21 23:12:00,
2013-01-21 17:22:00,-1.0,-16.0,-100.00,NW,304,16.0,27.0,49,0.00,,,0.00,,2013-01-21 23:22:00,
2013-01-21 17:53:00,-1.0,-15.0,-100.00,WNW,300,14.0,25.0,50,0.00,,,0.00,,2013-01-21 23:53:00,
2013-01-21 18:02:00,-1.0,-15.0,-100.00,WNW,300,14.0,25.0,50,0.00,,,0.00,,2013-01-22 00:02:00,
2013-01-21 18:12:00,-1.0,-15.0,-100.00,WNW,300,14.0,25.0,50,0.00,,,0.00,,2013-01-22 00:12:00,
2013-01-21 18:22:00,-1.0,-15.0,-100.00,WNW,300,14.0,25.0,50,0.00,,,0.00,,2013-01-22 00:22:00,
2013-01-21 18:53:00,-2.0,-16.0,-100.00,NW,310,15.0,24.0,50,0.00,,,0.00,,2013-01-22 00:53:00,
2013-01-21 19:02:00,-2.0,-16.0,-100.00,NW,310,15.0,24.0,50,0.00,,,0.00,,2013-01-22 01:02:00,
2013-01-21 19:12:00,-2.0,-16.0,-100.00,NW,310,15.0,24.0,50,0.00,,,0.00,,2013-01-22 01:12:00,
2013-01-21 19:23:00,-2.0,-16.0,-100.00,NW,310,15.0,24.0,50,0.00,,,0.00,,2013-01-22 01:23:00,
2013-01-21 19:52:00,-2.0,-15.0,-100.00,NW,316,12.0,23.0,52,0.00,,,0.00,,2013-01-22 01:52:00,
2013-01-21 20:02:00,-2.0,-15.0,-100.00,NW,316,12.0,23.0,52,0.00,,,0.00,,2013-01-22 02:02:00,
2013-01-21 20:12:00,-2.0,-15.0,-100.00,NW,316,12.0,23.0,52,0.00,,,0.00,,2013-01-22 02:12:00,
2013-01-21 20:22:00,-2.0,-15.0,-100.00,NW,316,12.0,23.0,52,0.00,,,0.00,,2013-01-22 02:22:00,
2013-01-21 20:53:00,-3.0,-14.0,-100.00,NW,313,12.0,21.0,57,0.00,,,0.00,,2013-01-22 02:53:00,
2013-01-21 21:02:00,-3.0,-14.0,-100.00,NW,313,12.0,21.0,57,0.00,,,0.00,,2013-01-22 03:02:00,
2013-01-21 21:12:00,-3.0,-14.0,-100.00,NW,313,12.0,21.0,57,0.00,,,0.00,,2013-01-22 03:12:00,
2013-01-21 21:22:00,-3.0,-14.0,-100.00,NW,313,12.0,21.0,57,0.00,,,0.00,,2013-01-22 03:22:00,
2013-01-21 21:53:00,-4.0,-15.0,-100.00,NW,320,11.0,20.0,57,0.00,,,0.00,,2013-01-22 03:53:00,
2013-01-21 22:02:00,-4.0,-15.0,-100.00,NW,320,11.0,20.0,57,0.00,,,0.00,,2013-01-22 04:02:00,
2013-01-21 22:12:00,-4.0,-15.0,-100.00,NW,320,11.0,20.0,57,0.00,,,0.00,,2013-01-22 04:12:00,
2013-01-21 22:22:00,-4.0,-15.0,-100.00,NW,320,11.0,20.0,57,0.00,,,0.00,,2013-01-22 04:22:00,
2013-01-21 22:52:00,-5.0,-16.0,-100.00,NNW,327,12.0,19.0,57,0.00,,,0.00,,2013-01-22 04:52:00,
2013-01-21 23:04:00,-5.0,-16.0,-100.00,NNW,327,12.0,19.0,57,0.00,,,0.00,,2013-01-22 05:04:00,
2013-01-21 23:12:00,-5.0,-16.0,-100.00,NNW,327,12.0,19.0,57,0.00,,,0.00,,2013-01-22 05:12:00,
2013-01-21 23:22:00,-5.0,-16.0,-100.00,NNW,327,12.0,19.0,57,0.00,,,0.00,,2013-01-22 05:22:00,
2013-01-21 23:53:00,-6.0,-18.0,-100.00,NW,324,13.0,24.0,55,0.00,,,0.00,,2013-01-22 05:53:00,